Regional Weather Roundup
Issued by NWS

Home | Current Version | Previous Version | Graphics & Text | Print | Product List | Glossary On
Versions: 1 2 3 4 5 6 7 8 9 10 11 12 13 14 15 16 17 18 19 20 21 22 23 24 25 26 27 28 29 30 31 32 33 34 35 36 37 38 39 40 41 42 43 44 45 46 47 48 49 50
000
ASUS43 KTOP 311108
RWRKS

WEATHER ROUNDUP FOR KANSAS
NATIONAL WEATHER SERVICE GOODLAND KS
600 AM CDT SUN AUG 31 2014

NOTE:  "FAIR" INDICATES FEW OR NO CLOUDS BELOW 12,000 FEET WITH NO
SIGNIFICANT WEATHER AND/OR OBSTRUCTIONS TO VISIBILITY.

KSZ001>006-013>018-027>032-041>047-311200-
NORTHWEST KANSAS

CITY           SKY/WX    TMP DP  RH WIND       PRES   REMARKS
GOODLAND       CLEAR     63  58  83 S14       29.83F
HAYS           MOCLDY    66  61  82 SE7       29.85F
HILL CITY      CLOUDY    73  60  63 S8        29.78F
$$

KSZ061>065-074>080-084>089-311200-
SOUTHWEST KANSAS

CITY           SKY/WX    TMP DP  RH WIND       PRES   REMARKS
DODGE CITY     PTCLDY    76  56  49 S17G28    29.85S
ELKHART          N/A     70  51  51 S9          N/A
GARDEN CITY    CLOUDY    73  58  59 S21G29    29.84F
GREAT BEND     MOCLDY    68  61  77 SW10      29.85R THUNDER
LIBERAL        MOCLDY    75  55  50 S18G25    29.90S
PRATT          MOCLDY    72  59  64 S15       29.85F
$$

KSZ066>073-081>083-090>101-311200-
SOUTHEAST KANSAS

CITY           SKY/WX    TMP DP  RH WIND       PRES   REMARKS
CHANUTE        CLEAR     71  68  90 S10       29.92R
COFFEYVILLE    CLEAR     71  69  93 SE6       29.92R
HUTCHINSON     CLEAR     69  64  84 SE8       29.86S
MEDICINE LODGE   N/A     74  62  66 S7        29.85F
NEWTON         MOCLDY    70  63  78 S8        29.91R
PARSONS        CLEAR     72  69  90 S6        29.93R
WICHITA INTL   PTCLDY    71  66  84 S9        29.87R
WICHITA JABRA  CLEAR     71  66  84 S9        29.88R
WICHITA MCCONL CLEAR     71  71  99 SE10      29.89R
WINFIELD       CLEAR     71  68  90 S8        29.90R
$$

KSZ007>012-019>026-033>040-048>060-102>105-311200-
NORTHEAST KANSAS

CITY           SKY/WX    TMP DP  RH WIND       PRES   REMARKS
CONCORDIA      PTCLDY    71  64  78 S15       29.81S
EMPORIA        CLEAR     68  66  93 S12       29.89R
LAWRENCE       CLEAR     71  65  81 E7        29.87F
MANHATTAN      CLEAR     69  65  86 SW6       29.84R
MARYSVILLE     CLEAR     64  63  94 SE6       29.83S
OLATHE IND     CLEAR     68  67  96 SE8       29.90R
OLATHE EXE     CLEAR     69  67  93 S8        29.90R
SALINA         PTCLDY    72  64  76 S9        29.83S
TOPEKA BILLARD CLEAR     72  67  84 S3        29.87R
TOPEKA FORBES  CLEAR     70  65  84 SE5       29.87R
$$


USA.gov is the U.S. government's official web portal to all federal, state and local government web resources and services.